TimeCEST,TemperatureF,Dew PointF,Humidity,Sea Level PressureIn,VisibilityMPH,Wind Direction,Wind SpeedMPH,Gust SpeedMPH,PrecipitationIn,Events,Conditions,WindDirDegrees,DateUTC
12:25 AM,39.2,35.6,87,29.98,6.2,South,4.6,-,N/A,,Unknown,190,2012-10-10 22:25:00
12:55 AM,41.0,37.4,87,29.98,6.2,South,4.6,-,N/A,,Unknown,170,2012-10-10 22:55:00
1:25 AM,37.4,33.8,87,29.98,6.2,SSE,4.6,-,N/A,,Unknown,160,2012-10-10 23:25:00
1:46 AM,35.6,33.8,93,29.98,-9999.0,South,4.6,-,N/A,,Mist,170,2012-10-10 23:46:00
1:47 AM,35.6,33.8,93,29.98,6.2,South,5.8,-,N/A,,Unknown,180,2012-10-10 23:47:00
1:55 AM,35.6,33.8,93,29.98,6.2,South,6.9,-,N/A,,Unknown,180,2012-10-10 23:55:00
2:05 AM,39.2,37.4,93,29.98,6.2,South,6.9,-,N/A,,Unknown,170,2012-10-11 00:05:00
2:25 AM,42.8,39.2,87,29.98,6.2,South,6.9,-,N/A,,Unknown,170,2012-10-11 00:25:00
2:55 AM,42.8,39.2,87,29.95,6.2,SSE,5.8,-,N/A,,Unknown,160,2012-10-11 00:55:00
3:25 AM,42.8,41.0,93,29.95,6.2,SSE,6.9,-,N/A,,Unknown,150,2012-10-11 01:25:00
3:29 AM,42.8,41.0,93,29.95,-9999.0,SSE,6.9,-,N/A,,Mist,150,2012-10-11 01:29:00
3:35 AM,42.8,41.0,93,29.95,6.2,SSE,8.1,-,N/A,,Unknown,150,2012-10-11 01:35:00
3:48 AM,42.8,41.0,93,29.95,6.2,SSE,8.1,-,N/A,,Unknown,150,2012-10-11 01:48:00
3:55 AM,42.8,41.0,93,29.95,6.2,SSE,8.1,-,N/A,,Unknown,150,2012-10-11 01:55:00
4:25 AM,44.6,42.8,93,29.95,6.2,SSE,9.2,-,N/A,,Unknown,160,2012-10-11 02:25:00
4:55 AM,46.4,44.6,93,29.92,6.2,SSE,10.4,-,N/A,,Unknown,150,2012-10-11 02:55:00
5:25 AM,48.2,44.6,87,29.92,6.2,SSE,11.5,-,N/A,,Unknown,150,2012-10-11 03:25:00
5:55 AM,48.2,44.6,87,29.92,6.2,SE,12.7,-,N/A,,Unknown,140,2012-10-11 03:55:00
6:25 AM,48.2,44.6,87,29.92,6.2,SSE,13.8,-,N/A,,Unknown,150,2012-10-11 04:25:00
6:55 AM,48.2,44.6,87,29.92,6.2,SE,13.8,-,N/A,,Unknown,140,2012-10-11 04:55:00
7:25 AM,48.2,44.6,87,29.89,6.2,SE,12.7,-,N/A,,Unknown,140,2012-10-11 05:25:00
7:55 AM,48.2,44.6,87,29.89,6.2,SE,15.0,-,N/A,,Unknown,140,2012-10-11 05:55:00
8:25 AM,48.2,44.6,87,29.89,6.2,SE,16.1,-,N/A,,Unknown,140,2012-10-11 06:25:00
8:55 AM,48.2,44.6,87,29.89,6.2,SE,16.1,-,N/A,,Unknown,130,2012-10-11 06:55:00
9:25 AM,48.2,44.6,87,29.89,6.2,SE,16.1,-,N/A,,Unknown,130,2012-10-11 07:25:00
9:55 AM,50.0,44.6,82,29.89,6.2,SE,18.4,-,N/A,,Unknown,130,2012-10-11 07:55:00
10:25 AM,50.0,44.6,82,29.89,6.2,SE,17.3,-,N/A,,Unknown,130,2012-10-11 08:25:00
10:55 AM,51.8,44.6,76,29.89,6.2,SE,19.6,-,N/A,,Unknown,130,2012-10-11 08:55:00
11:25 AM,51.8,44.6,76,29.86,6.2,SE,19.6,-,N/A,,Unknown,130,2012-10-11 09:25:00
11:55 AM,51.8,44.6,76,29.86,6.2,ESE,20.7,-,N/A,,Unknown,120,2012-10-11 09:55:00
12:25 PM,53.6,42.8,67,29.86,6.2,ESE,21.9,-,N/A,,Unknown,120,2012-10-11 10:25:00
12:55 PM,53.6,42.8,67,29.86,6.2,SE,20.7,-,N/A,,Unknown,130,2012-10-11 10:55:00
1:25 PM,55.4,44.6,67,29.83,6.2,SE,20.7,-,N/A,,Unknown,130,2012-10-11 11:25:00
1:55 PM,55.4,42.8,63,29.83,6.2,SE,20.7,-,N/A,,Unknown,130,2012-10-11 11:55:00
2:25 PM,55.4,41.0,58,29.83,6.2,SE,20.7,-,N/A,,Unknown,130,2012-10-11 12:25:00
2:55 PM,55.4,41.0,58,29.80,6.2,SE,20.7,-,N/A,,Unknown,130,2012-10-11 12:55:00
3:25 PM,55.4,42.8,63,29.80,6.2,SE,19.6,-,N/A,,Unknown,130,2012-10-11 13:25:00
3:55 PM,55.4,41.0,58,29.80,6.2,ESE,20.7,-,N/A,,Unknown,120,2012-10-11 13:55:00
4:25 PM,55.4,41.0,58,29.77,6.2,ESE,21.9,-,N/A,,Unknown,120,2012-10-11 14:25:00
4:55 PM,55.4,42.8,63,29.77,6.2,ESE,21.9,-,N/A,,Unknown,120,2012-10-11 14:55:00
5:25 PM,55.4,42.8,63,29.77,6.2,ESE,20.7,-,N/A,,Unknown,120,2012-10-11 15:25:00
5:55 PM,53.6,42.8,67,29.77,6.2,ESE,20.7,-,N/A,,Unknown,120,2012-10-11 15:55:00
6:25 PM,53.6,42.8,67,29.74,6.2,ESE,20.7,-,N/A,,Unknown,120,2012-10-11 16:25:00
6:55 PM,51.8,42.8,71,29.74,6.2,ESE,19.6,-,N/A,,Unknown,120,2012-10-11 16:55:00
7:25 PM,51.8,42.8,71,29.74,6.2,ESE,18.4,-,N/A,,Unknown,120,2012-10-11 17:25:00
7:55 PM,51.8,44.6,76,29.74,6.2,ESE,18.4,-,N/A,,Unknown,110,2012-10-11 17:55:00
8:25 PM,51.8,44.6,76,29.74,6.2,ESE,19.6,-,N/A,,Unknown,110,2012-10-11 18:25:00
8:55 PM,50.0,42.8,76,29.74,6.2,ESE,21.9,-,N/A,,Unknown,110,2012-10-11 18:55:00
9:25 PM,50.0,42.8,76,29.74,6.2,ESE,21.9,-,N/A,,Unknown,110,2012-10-11 19:25:00
9:55 PM,50.0,42.8,76,29.71,6.2,ESE,25.3,-,N/A,,Unknown,110,2012-10-11 19:55:00
10:25 PM,50.0,42.8,76,29.71,6.2,ESE,24.2,-,N/A,,Unknown,110,2012-10-11 20:25:00
10:55 PM,50.0,42.8,76,29.71,6.2,ESE,24.2,-,N/A,,Unknown,110,2012-10-11 20:55:00
11:25 PM,48.2,42.8,82,29.71,6.2,ESE,25.3,-,N/A,,Unknown,110,2012-10-11 21:25:00